Regional Weather Roundup
Issued by NWS New Orleans/Baton Rouge, LA

Home | Current Version | Previous Version | Text Only | Print | Product List | Glossary On
Versions: 1 2 3 4 5 6 7 8 9 10 11 12 13 14 15 16 17 18 19 20 21 22 23 24 25 26 27 28 29 30 31 32 33 34 35 36 37 38 39 40 41 42 43 44 45 46 47 48 49 50
000
ASUS44 KLIX 301311
RWRLIX
NEW ORLEANS REGIONAL WEATHER ROUNDUP
NATIONAL WEATHER SERVICE NEW ORLEANS LA
800 AM CDT SAT JUL 30 2016

NOTE: "FAIR" INDICATES FEW OR NO CLOUDS BELOW 12,000 FEET WITH NO
      SIGNIFICANT WEATHER AND/OR OBSTRUCTIONS TO VISIBILITY.
      SKY/WX - SKY CONDITION AND SIGNIFICANT WEATHER.
      TMP - AIR TEMPERATURE.     DP    - DEWPOINT TEMPERATURE.
      RH  - RELATIVE HUMIDITY.   PRES  - PRESSURE.
      HI  - HEAT INDEX.          WCI   - WIND CHILL INDEX.

*  THESE STATIONS ARE NOT NWS OR FAA STATIONS AND ARE NOT UNDER
   NWS QUALITY CONTROL.

LAZ038-040-048-061>063-065>067-069-301400-
SOUTHEAST LOUISIANA

CITY           SKY/WX    TMP DP  RH WIND       PRES   REMARKS
N.O. AUDUBON     N/A     87  79  76 MISG        N/A  HX 101
N.O. INTL ARPT MOSUNNY   84  77  79 CALM      30.04R
N.O. LAKEFRONT SUNNY     84  77  79 W6        30.05R
N.O. DOWNTOWN*   N/A     84  77  79 CALM      30.06R
RESERVE*         N/A     82  79  90 CALM      30.04S
SLIDELL        SUNNY     81  76  84 CALM      30.04R
BATON ROUGE    MOSUNNY   81  76  84 W3        30.04R
BOOTHVILLE     PTSUNNY   84  76  76 CALM      30.05R
BELLE CHASSE   MOSUNNY   83  79  88 W3        30.04R
BOGALUSA*        N/A     79  73  83 CALM      30.06R
GALLIANO*      MOSUNNY   72  72 100 CALM      30.04R
NEW ROADS*       N/A     78  75  92 CALM      30.05R
GONZALES*        N/A     81  78  92 CALM      30.02S
HAMMOND*       SUNNY     79  73  83 CALM      30.04R
HOUMA*         NOT AVBL
PORT FOURCHON* NOT AVBL

$$

MSZ070-080>082-301400-
SOUTHERN MISSISSIPPI

CITY           SKY/WX    TMP DP  RH WIND       PRES   REMARKS
MCCOMB         SUNNY     78  74  87 W6        30.06R
GULFPORT       SUNNY     82  76  81 W5        30.04R
BILOXI         SUNNY     84  79  84 VRB6      30.04R HX  95
PASCAGOULA     SUNNY     82  79  90 VRB3      30.04R
STENNIS ARPT*  SUNNY     79  73  83 CALM      30.04R

$$

COASTAL OBSERVATIONS
LAKE AND NEARSHORE STATIONS

STATION/POSITION TIME  TEMP    WIND        PRES    WAVE
                       AIR SEA DIR/SP/G            HT/PER
                 (UTC) (F)     (DEG/KT/KT) (MB)    (FT/S)
PASCAGOULA       1200   81     350/  5/  6 1016.4
WAVELAND YACHT   1200   79 87  300/  4/  6 1017.0
GRAND ISLE       1200   85 89  260/  5/  7 1016.9
SOUTHWEST PASS   1200          260/  8/  9   N/A
NEW CANAL        1200   82 86  220/  2/  3 1016.2
SHELL BEACH      1200   82 88  240/  3/  4 1016.9

OFFSHORE STATIONS

STATION/POSITION TIME  TEMP    WIND        PRES    WAVE
                       AIR SEA DIR/SP/G            HT/PER
                 (UTC) (F)     (DEG/KT/KT) (MB)    (FT/S)
64 S DAUPHIN ISL 1200   85 88  260/  8/ 10 1016.6

$$




USA.gov is the U.S. government's official web portal to all federal, state and local government web resources and services.